Location: Igloolik
(69.3800°N, 81.8000°W)
Time: 05:24:30
(UTC-05:00)

Amateur Radio Satellites - All Passes

Search period start: 04 September 2015 04:54
Search period end: 05 September 2015 04:54
Location: Igloolik, 69.3800°N, 81.8000°W

Satellite Date Start Highest point End Downlink Frequencies (MHz)
Time Altitude Azimuth
Cosmos 2499 04 Sep 04:55:36 05:04:29 89° 115° (ESE) 05:13:24 435.465 / 435.565
Oscar 19 04 Sep 04:56:21 05:01:10 39° 321° (NW) 05:05:59 437.125/150
STARS 04 Sep 04:59:47 05:01:57 13° 286° (WNW) 05:04:03 437.465
QB50P1 04 Sep 05:03:25 05:06:08 17° 355° (N) 05:08:51 145.935-145.965
DANDE 04 Sep 05:06:47 05:12:01 31° 0° (N) 05:18:28 436.750
Cosmos 2491 04 Sep 05:07:40 05:12:19 16° 44° (NE) 05:17:11 435.465 / 435.565
JAS-2 04 Sep 05:14:37 05:22:09 74° 304° (NW) 05:28:52 435.910
Cosmos 2504 04 Sep 05:15:44 05:23:32 35° 9° (N) 05:31:13 435.465 / 435.565
PRISM 04 Sep 05:19:51 05:23:53 60° 57° (ENE) 05:27:57 437.425
AUBIESAT-1 04 Sep 05:27:40 05:31:24 27° 9° (N) 05:34:55 437.475
CUTE-I 04 Sep 05:34:14 05:38:16 22° 81° (E) 05:42:22 437.470
M-CUBED/EXP-1 PRIME 04 Sep 05:36:25 05:40:18 28° 13° (NNE) 05:43:58 437.505
UNISAT 6 04 Sep 05:39:19 05:42:42 20° 15° (NNE) 05:46:04 437.425
YUBILEINY 04 Sep 05:49:53 05:58:42 63° 52° (NE) 06:07:30 435.215
CUSAT 1 04 Sep 05:55:22 06:01:24 35° 17° (NNE) 06:08:32 437.405
BUGSAT 1 04 Sep 05:55:50 05:58:24 16° 3° (N) 06:01:00 437.445
AIST 1 04 Sep 05:56:44 05:58:54 14° 74° (ENE) 06:01:11
SO-50 04 Sep 05:58:16 06:02:59 43° 199° (SSW) 06:07:41 436.795
PCSat 04 Sep 06:02:41 06:08:07 70° 186° (S) 06:13:33 145.827
ITAMSAT 1 04 Sep 06:03:17 06:08:05 39° 322° (NW) 06:12:52 435.822/435.867
DUCHIFAT 1 04 Sep 06:04:11 06:06:56 17° 10° (N) 06:09:43 145.980
HO-68 04 Sep 06:05:52 06:08:02 11° 54° (NE) 06:10:26 435.675
TIGRISAT 04 Sep 06:05:54 06:09:27 22° 21° (NNE) 06:13:00 435.000
POLYITAN 1 04 Sep 06:05:56 06:08:46 17° 11° (N) 06:11:37 437.675
MOZHAYETS 4 04 Sep 06:06:41 06:08:55 13° 288° (WNW) 06:11:03
Gurwin Techsat 1B 04 Sep 06:06:47 06:11:37 36° 325° (NW) 06:16:26 435.225
POPSAT HIP 1 04 Sep 06:07:02 06:09:51 17° 11° (N) 06:12:40 437.405
STRAND 1 04 Sep 06:09:34 06:14:40 68° 250° (WSW) 06:19:48 437.568
HORYU 2 04 Sep 06:12:39 06:17:07 63° 303° (WNW) 06:21:32 437.375
NANOSAT C BR1 04 Sep 06:22:45 06:25:38 18° 15° (NNE) 06:28:32 145.865
ANTELSAT 04 Sep 06:24:15 06:27:57 24° 26° (NNE) 06:31:40 437.575/2403.000
QB50P2 04 Sep 06:24:41 06:27:36 18° 16° (NNE) 06:30:33 145.880/145.840
Cubesat XI-IV 04 Sep 06:30:18 06:35:15 37° 94° (E) 06:40:13 437.490
CUBESAT XI-V 04 Sep 06:30:32 06:34:35 29° 270° (W) 06:38:40 437.345
Oscar 19 04 Sep 06:35:24 06:39:35 25° 345° (NNW) 06:43:45 437.125/150
BRITE-PL 04 Sep 06:37:21 06:41:28 22° 79° (ENE) 06:45:49 437.365/2234.400
QB50P1 04 Sep 06:37:45 06:40:46 19° 19° (NNE) 06:43:48 145.935-145.965
GONETS M04 04 Sep 06:38:56 06:47:06 40° 337° (NNW) 06:55:18
DOVE 4 04 Sep 06:43:16 06:46:03 14° 68° (ENE) 06:48:58 437.250
AO-7 04 Sep 06:43:18 06:51:40 81° 311° (NW) 06:59:59 29.400- 29.500
GOMX 1 04 Sep 06:47:28 06:51:15 19° 75° (ENE) 06:55:11 467.674
Cosmos 2499 04 Sep 06:49:54 06:58:34 53° 318° (NW) 07:07:11 435.465 / 435.565
DANDE 04 Sep 06:51:04 06:56:53 37° 26° (NNE) 07:04:05 436.750
PRISM 04 Sep 06:55:36 06:59:31 42° 259° (W) 07:03:27 437.425
Cosmos 2491 04 Sep 06:59:09 07:06:32 33° 72° (ENE) 07:14:01 435.465 / 435.565
JAS-2 04 Sep 06:59:31 07:06:35 43° 329° (NNW) 07:12:59 435.910
AUBIESAT-1 04 Sep 07:01:13 07:05:25 39° 31° (NNE) 07:09:24 437.475
CINEMA 3 04 Sep 07:02:33 07:03:47 11° 63° (ENE) 07:05:10 145.822/145.860
Cosmos 2504 04 Sep 07:09:36 07:17:57 48° 39° (NE) 07:26:02 435.465 / 435.565
M-CUBED/EXP-1 PRIME 04 Sep 07:10:04 07:14:28 44° 34° (NE) 07:18:35 437.505
CUTE-I 04 Sep 07:14:13 07:19:29 57° 105° (ESE) 07:24:46 437.470
UNISAT 6 04 Sep 07:14:18 07:18:27 31° 38° (NE) 07:22:34 437.425
BUGSAT 1 04 Sep 07:29:33 07:32:42 21° 26° (NNE) 07:35:54 437.445
AIST 1 04 Sep 07:31:35 07:35:38 43° 97° (E) 07:39:44
CUTE 1.7 + AOD 2 04 Sep 07:36:32 07:39:02 15° 77° (ENE) 07:41:37 437.475
DUCHIFAT 1 04 Sep 07:38:09 07:41:39 25° 33° (NNE) 07:45:11 145.980
SO-50 04 Sep 07:38:40 07:42:44 25° 222° (SW) 07:46:45 436.795
CUSAT 1 04 Sep 07:38:41 07:45:26 51° 42° (NE) 07:53:20 437.405
POLYITAN 1 04 Sep 07:40:01 07:43:36 26° 34° (NE) 07:47:13 437.675
TIGRISAT 04 Sep 07:40:58 07:45:18 37° 44° (NE) 07:49:37 435.000
POPSAT HIP 1 04 Sep 07:41:04 07:44:39 26° 34° (NE) 07:48:14 437.405
ITAMSAT 1 04 Sep 07:42:28 07:46:39 25° 346° (NNW) 07:50:49 435.822/435.867
PCSat 04 Sep 07:45:58 07:51:14 51° 210° (SSW) 07:56:30 145.827
Gurwin Techsat 1B 04 Sep 07:46:21 07:50:35 25° 349° (N) 07:54:49 435.225
YUBILEINY 04 Sep 07:47:09 07:55:59 71° 260° (W) 08:04:43 435.215
HORYU 2 04 Sep 07:49:22 07:53:14 28° 326° (NW) 07:57:03 437.375
STRAND 1 04 Sep 07:50:35 07:54:48 25° 275° (W) 07:58:58 437.568
CANX-2 04 Sep 07:50:56 07:53:59 19° 82° (E) 07:57:05 2200.000
HO-68 04 Sep 07:52:41 07:58:42 28° 82° (E) 08:04:48 435.675
NANOSAT C BR1 04 Sep 07:56:46 08:00:28 29° 38° (NE) 08:04:11 145.865
QB50P2 04 Sep 07:58:45 08:02:30 30° 39° (NE) 08:06:17 145.880/145.840
ANTELSAT 04 Sep 07:59:28 08:03:57 44° 49° (NE) 08:08:25 437.575/2403.000
UWE-3 04 Sep 08:03:28 08:04:55 11° 67° (ENE) 08:06:30 435.000/436.395/437.385
CUBEBUG 2 04 Sep 08:03:59 08:06:16 13° 70° (ENE) 08:08:39 437.445
SEEDS 04 Sep 08:05:34 08:08:36 19° 82° (E) 08:11:41 437.485
Cubesat XI-IV 04 Sep 08:10:33 08:15:55 85° 301° (WNW) 08:21:17 437.490
QB50P1 04 Sep 08:11:52 08:15:41 32° 42° (NE) 08:19:34 145.935-145.965
CUBESAT XI-V 04 Sep 08:13:17 08:13:39 10° 294° (WNW) 08:13:52 437.345
Oscar 19 04 Sep 08:13:39 08:17:43 24° 9° (N) 08:21:48 437.125/150
BRITE-PL 04 Sep 08:15:46 08:21:03 57° 102° (ESE) 08:26:37 437.365/2234.400
DOVE 4 04 Sep 08:20:25 08:25:20 37° 92° (E) 08:30:17 437.250
COMPASS 1 04 Sep 08:21:04 08:24:11 20° 84° (E) 08:27:21 437.405
GOMX 1 04 Sep 08:25:22 08:30:36 49° 98° (E) 08:35:58 467.674
DELFI C3 04 Sep 08:26:34 08:26:51 10° 71° (ENE) 08:27:15 145.870
AAUSAT CUBESAT 2 04 Sep 08:27:52 08:30:58 20° 84° (E) 08:34:07 437.432
Oscar 11 04 Sep 08:32:06 08:34:37 15° 77° (ENE) 08:37:14 145.826/435.025
PRISM 04 Sep 08:33:54 08:36:02 14° 282° (WNW) 08:38:05 437.425
DANDE 04 Sep 08:34:39 08:41:13 60° 50° (NE) 08:49:18 436.750
AUBIESAT-1 04 Sep 08:35:16 08:39:53 84° 52° (NE) 08:44:13 437.475
AO-7 04 Sep 08:36:01 08:44:02 53° 338° (NNW) 08:52:00 29.400- 29.500
CINEMA 3 04 Sep 08:38:17 08:42:42 30° 87° (E) 08:47:06 145.822/145.860
GONETS M04 04 Sep 08:38:30 08:46:29 36° 8° (N) 08:54:31
JAS-2 04 Sep 08:43:40 08:50:22 34° 355° (N) 08:56:35 435.910
M-CUBED/EXP-1 PRIME 04 Sep 08:44:22 08:49:04 84° 236° (SW) 08:53:29 437.505
Cosmos 2499 04 Sep 08:45:39 08:53:49 37° 347° (NNW) 09:01:50 435.465 / 435.565
UNISAT 6 04 Sep 08:50:03 08:54:46 71° 60° (ENE) 08:59:28 437.425
Cosmos 2491 04 Sep 08:53:37 09:02:14 70° 99° (E) 09:10:55 435.465 / 435.565
CUTE-I 04 Sep 08:54:28 08:59:43 59° 308° (NW) 09:04:58 437.470
Cosmos 2504 04 Sep 09:02:32 09:11:16 83° 66° (ENE) 09:19:37 435.465 / 435.565
BUGSAT 1 04 Sep 09:03:28 09:07:24 41° 49° (NE) 09:11:25 437.445
AIST 1 04 Sep 09:09:00 09:13:14 59° 300° (WNW) 09:17:31
CUTE 1.7 + AOD 2 04 Sep 09:11:52 09:16:00 47° 100° (E) 09:20:07 437.475
DUCHIFAT 1 04 Sep 09:12:39 09:16:51 56° 56° (NE) 09:21:05 145.980
POLYITAN 1 04 Sep 09:14:41 09:18:56 59° 57° (ENE) 09:23:13 437.675
POPSAT HIP 1 04 Sep 09:15:42 09:19:57 59° 57° (ENE) 09:24:14 437.405
TIGRISAT 04 Sep 09:17:01 09:21:46 89° 246° (WSW) 09:26:30 435.000
SO-50 04 Sep 09:20:45 09:21:53 11° 244° (WSW) 09:22:52 436.795
ITAMSAT 1 04 Sep 09:20:53 09:24:58 24° 10° (N) 09:29:04 435.822/435.867
CUSAT 1 04 Sep 09:21:29 09:28:39 90° 265° (W) 09:36:56 437.405
ZACube-1 04 Sep 09:23:12 09:26:54 24° 85° (E) 09:30:34 437.345
Gurwin Techsat 1B 04 Sep 09:25:05 09:29:20 25° 13° (NNE) 09:33:37 435.225
HORYU 2 04 Sep 09:25:40 09:28:50 19° 349° (N) 09:31:59 437.375
CANX-2 04 Sep 09:26:32 09:30:46 60° 105° (ESE) 09:34:59 2200.000
FUNcube-1 04 Sep 09:26:47 09:30:31 24° 86° (E) 09:34:12 145.935
PCSat 04 Sep 09:29:22 09:33:50 26° 233° (SW) 09:38:15 145.827
NANOSAT C BR1 04 Sep 09:31:33 09:35:50 70° 60° (ENE) 09:40:08 145.865
QB50P2 04 Sep 09:33:40 09:37:58 73° 61° (ENE) 09:42:18 145.880/145.840
ANTELSAT 04 Sep 09:35:52 09:40:37 72° 251° (WSW) 09:45:20 437.575/2403.000
HUMSAT D 04 Sep 09:36:31 09:39:17 17° 79° (E) 09:42:05 437.325/437.525
VELOX 1 04 Sep 09:36:44 09:37:10 10° 69° (ENE) 09:37:45 145.980
UWE-3 04 Sep 09:38:44 09:42:57 32° 91° (E) 09:47:06 435.000/436.395/437.385
CUBEBUG 2 04 Sep 09:39:54 09:44:20 37° 94° (E) 09:48:43 437.445
HO-68 04 Sep 09:40:43 09:47:55 63° 108° (ESE) 09:55:05 435.675
SEEDS 04 Sep 09:41:02 09:45:14 60° 105° (ESE) 09:49:24 437.485
YUBILEINY 04 Sep 09:44:01 09:51:41 34° 287° (WNW) 09:59:13 435.215
QB50P1 04 Sep 09:46:53 09:51:12 83° 67° (ENE) 09:55:33 145.935-145.965
Cubesat XI-IV 04 Sep 09:50:46 09:55:42 40° 322° (NW) 10:00:39 437.490
Oscar 19 04 Sep 09:51:24 09:56:01 33° 33° (NNE) 10:00:40 437.125/150
BRITE-PL 04 Sep 09:54:27 09:59:42 61° 304° (NW) 10:05:14 437.365/2234.400
COMPASS 1 04 Sep 09:56:27 10:00:38 65° 107° (ESE) 10:04:46 437.405
DOVE 4 04 Sep 09:58:15 10:03:35 85° 296° (WNW) 10:08:57 437.250
DELFI C3 04 Sep 09:59:33 10:03:12 32° 94° (E) 10:06:50 145.870
AAUSAT CUBESAT 2 04 Sep 10:03:11 10:07:20 65° 106° (ESE) 10:11:28 437.432
GOMX 1 04 Sep 10:03:39 10:08:58 68° 301° (WNW) 10:14:27 467.674
DX 1 04 Sep 10:06:34 10:09:30 17° 81° (E) 10:12:31 434.975-435.025
Oscar 11 04 Sep 10:07:42 10:11:55 46° 100° (E) 10:16:06 145.826/435.025
AUBIESAT-1 04 Sep 10:10:41 10:14:57 35° 253° (WSW) 10:18:59 437.475
50 SAT 04 Sep 10:11:01 10:13:16 15° 79° (E) 10:15:33 437.505
UKube-1 04 Sep 10:12:59 10:15:55 18° 82° (E) 10:18:55 .
CINEMA 3 04 Sep 10:15:28 10:20:35 81° 112° (ESE) 10:25:35 145.822/145.860
DANDE 04 Sep 10:17:54 10:24:41 72° 253° (WSW) 10:32:55 436.750
M-CUBED/EXP-1 PRIME 04 Sep 10:20:10 10:24:20 30° 257° (WSW) 10:28:17 437.505
JAS-2 04 Sep 10:27:04 10:34:02 38° 20° (NNE) 10:40:35 435.910
UNISAT 6 04 Sep 10:27:22 10:31:51 41° 263° (W) 10:36:19 437.425
AO-7 04 Sep 10:28:02 10:35:52 48° 5° (N) 10:43:41 29.400- 29.500
CUBEBUG 1 04 Sep 10:32:51 10:35:36 16° 78° (ENE) 10:38:26 437.445
CUTE-I 04 Sep 10:34:31 10:39:11 31° 332° (NNW) 10:43:49 437.470
GONETS M04 04 Sep 10:37:05 10:45:35 49° 39° (NE) 10:54:07
BUGSAT 1 04 Sep 10:38:36 10:42:46 68° 252° (WSW) 10:47:00 437.445
Cosmos 2499 04 Sep 10:41:16 10:49:29 38° 17° (NNE) 10:57:27 435.465 / 435.565
AISAT 04 Sep 10:44:16 10:47:51 23° 86° (E) 10:51:29 437.250
ESTCUBE 1 04 Sep 10:45:34 10:48:57 21° 83° (E) 10:52:24 437.505/2401.250
CUTE 1.7 + AOD 2 04 Sep 10:47:52 10:52:03 56° 303° (WNW) 10:56:12 437.475
AIST 1 04 Sep 10:48:10 10:51:43 24° 324° (NW) 10:55:17
DUCHIFAT 1 04 Sep 10:48:36 10:52:47 48° 258° (WSW) 10:56:59 145.980
Cosmos 2491 04 Sep 10:50:48 10:59:29 63° 307° (NW) 11:08:12 435.465 / 435.565
POLYITAN 1 04 Sep 10:50:49 10:55:00 46° 259° (W) 10:59:12 437.675
POPSAT HIP 1 04 Sep 10:51:49 10:55:58 46° 259° (W) 11:00:10 437.405
TIGRISAT 04 Sep 10:54:50 10:59:03 31° 269° (W) 11:03:15 435.000
Cosmos 2504 04 Sep 10:54:57 11:03:09 50° 273° (W) 11:11:00 435.465 / 435.565
ITAMSAT 1 04 Sep 10:58:48 11:03:27 34° 34° (NE) 11:08:07 435.822/435.867
ZACube-1 04 Sep 10:59:25 11:04:01 71° 108° (ESE) 11:08:30 437.345
HORYU 2 04 Sep 11:01:03 11:04:15 20° 13° (NNE) 11:07:28 437.375
CANX-2 04 Sep 11:02:35 11:06:41 46° 308° (NW) 11:10:44 2200.000
FUNcube-1 04 Sep 11:02:58 11:07:34 73° 108° (ESE) 11:12:02 145.935
Gurwin Techsat 1B 04 Sep 11:03:28 11:08:20 38° 37° (NE) 11:13:14 435.225
CUSAT 1 04 Sep 11:04:06 11:10:55 45° 267° (W) 11:18:33 437.405
NANOSAT C BR1 04 Sep 11:07:55 11:11:57 38° 263° (W) 11:16:00 145.865
QB50P2 04 Sep 11:10:11 11:14:11 36° 264° (W) 11:18:13 145.880/145.840
VELOX 1 04 Sep 11:11:15 11:15:13 30° 92° (E) 11:19:13 145.980
HUMSAT D 04 Sep 11:11:47 11:16:00 51° 102° (ESE) 11:20:09 437.325/437.525
ANTELSAT 04 Sep 11:14:12 11:18:08 25° 274° (W) 11:22:00 437.575/2403.000
UWE-3 04 Sep 11:15:16 11:19:59 86° 294° (WNW) 11:24:35 435.000/436.395/437.385
CUBEBUG 2 04 Sep 11:16:37 11:21:25 77° 297° (WNW) 11:26:06 437.445
SEEDS 04 Sep 11:16:57 11:20:59 45° 308° (NW) 11:25:00 437.485
QB50P1 04 Sep 11:23:39 11:27:31 31° 267° (W) 11:31:24 145.935-145.965
HO-68 04 Sep 11:28:44 11:35:55 68° 313° (NW) 11:43:04 435.675
Oscar 19 04 Sep 11:29:41 11:34:51 68° 57° (ENE) 11:40:04 437.125/150
Cubesat XI-IV 04 Sep 11:30:33 11:34:52 26° 346° (NNW) 11:39:12 437.490
COMPASS 1 04 Sep 11:32:14 11:36:12 42° 310° (NW) 11:40:09 437.405
BRITE-PL 04 Sep 11:33:01 11:37:36 31° 327° (NNW) 11:42:24 437.365/2234.400
DELFI C3 04 Sep 11:34:35 11:38:37 75° 297° (WNW) 11:42:37 145.870
DOVE 4 04 Sep 11:36:06 11:40:58 39° 318° (NW) 11:45:53 437.250
AAUSAT CUBESAT 2 04 Sep 11:38:55 11:42:52 42° 309° (NW) 11:46:47 437.432
YUBILEINY 04 Sep 11:40:46 11:45:52 17° 315° (NW) 11:50:48 435.215
GOMX 1 04 Sep 11:41:49 11:46:33 33° 324° (NW) 11:51:24 467.674
DX 1 04 Sep 11:42:25 11:46:45 52° 104° (ESE) 11:51:04 434.975-435.025
Oscar 11 04 Sep 11:43:59 11:48:16 59° 303° (WNW) 11:52:31 145.826/435.025
50 SAT 04 Sep 11:44:54 11:48:43 48° 102° (ESE) 11:52:29 437.505
SPROUT 04 Sep 11:48:36 11:52:02 22° 85° (E) 11:55:30 437.525
UKube-1 04 Sep 11:48:43 11:53:01 53° 105° (ESE) 11:57:18 .
AUBIESAT-1 04 Sep 11:48:51 11:50:50 12° 276° (W) 11:52:39 437.475
CINEMA 3 04 Sep 11:52:47 11:57:33 42° 314° (NW) 12:02:15 145.822/145.860
M-CUBED/EXP-1 PRIME 04 Sep 11:59:30 12:00:27 10° 279° (W) 12:01:16 437.505
DANDE 04 Sep 12:01:06 12:07:14 34° 274° (W) 12:14:18 436.750
UNISAT 6 04 Sep 12:07:15 12:09:54 14° 286° (WNW) 12:12:27 437.425
CUBEBUG 1 04 Sep 12:08:43 12:13:01 48° 102° (ESE) 12:17:20 437.445
JAS-2 04 Sep 12:10:31 12:18:09 57° 45° (NE) 12:25:21 435.910
CUTE-I 04 Sep 12:13:58 12:18:09 24° 356° (N) 12:22:21 437.470
BUGSAT 1 04 Sep 12:15:43 12:18:58 21° 274° (W) 12:22:13 437.445
AO-7 04 Sep 12:19:41 12:27:49 60° 31° (NNE) 12:35:56 29.400- 29.500
AISAT 04 Sep 12:20:41 12:25:12 69° 109° (ESE) 12:29:42 437.250
ESTCUBE 1 04 Sep 12:22:12 12:26:42 62° 107° (ESE) 12:31:12 437.505/2401.250
CUTE 1.7 + AOD 2 04 Sep 12:23:54 12:27:23 25° 326° (NW) 12:30:49 437.475
DUCHIFAT 1 04 Sep 12:26:53 12:29:36 16° 281° (W) 12:32:15 145.980
AIST 1 04 Sep 12:28:10 12:30:50 16° 350° (N) 12:33:32
POLYITAN 1 04 Sep 12:29:21 12:31:58 15° 283° (WNW) 12:34:32 437.675
POPSAT HIP 1 04 Sep 12:30:19 12:32:55 15° 283° (WNW) 12:35:27 437.405
SWISSCUBE 04 Sep 12:31:18 12:33:38 14° 73° (ENE) 12:36:05 437.505
GONETS M04 04 Sep 12:34:39 12:43:31 86° 67° (ENE) 12:52:24
Cosmos 2499 04 Sep 12:35:52 12:44:37 56° 46° (NE) 12:52:59 435.465 / 435.565
ZACube-1 04 Sep 12:35:54 12:40:15 43° 311° (NW) 12:44:30 437.345
HORYU 2 04 Sep 12:35:57 12:39:54 30° 36° (NE) 12:43:50 437.375
TIGRISAT 04 Sep 12:36:04 12:37:21 11° 293° (WNW) 12:38:29 435.000
TISAT 1 04 Sep 12:36:40 12:40:26 29° 92° (E) 12:44:12 437.305
ITAMSAT 1 04 Sep 12:37:20 12:42:30 72° 57° (ENE) 12:47:42 435.822/435.867
CANX-2 04 Sep 12:38:36 12:41:53 22° 330° (NNW) 12:45:09 2200.000
FUNcube-1 04 Sep 12:39:25 12:43:44 42° 312° (NW) 12:47:58 145.935
Gurwin Techsat 1B 04 Sep 12:42:36 12:47:56 80° 61° (ENE) 12:53:19 435.225
CUSAT 1 04 Sep 12:46:52 12:52:09 21° 290° (WNW) 12:57:42 437.405
NANOSAT C BR1 04 Sep 12:47:03 12:49:01 13° 286° (WNW) 12:50:54 145.865
Cosmos 2504 04 Sep 12:47:10 12:53:36 24° 300° (WNW) 12:59:46 435.465 / 435.565
HUMSAT D 04 Sep 12:47:36 12:51:49 52° 305° (NW) 12:55:57 437.325/437.525
VELOX 1 04 Sep 12:47:46 12:52:17 89° 308° (NW) 12:56:48 145.980
QB50P2 04 Sep 12:49:35 12:51:21 12° 287° (WNW) 12:53:02 145.880/145.840
Cosmos 2491 04 Sep 12:50:00 12:58:07 40° 337° (NNW) 13:06:17 435.465 / 435.565
UWE-3 04 Sep 12:51:54 12:56:09 35° 318° (NW) 13:00:20 435.000/436.395/437.385
SEEDS 04 Sep 12:52:50 12:56:04 22° 331° (NNW) 12:59:16 437.485
CUBEBUG 2 04 Sep 12:53:24 12:57:40 33° 320° (NW) 13:01:51 437.445
QB50P1 04 Sep 13:03:58 13:04:47 10° 290° (WNW) 13:05:29 145.935-145.965
RS-15 04 Sep 13:07:29 13:10:40 12° 81° (E) 13:14:25 29.354- 29.394
COMPASS 1 04 Sep 13:08:00 13:11:07 21° 332° (NNW) 13:14:14 437.405
Oscar 19 04 Sep 13:09:27 13:14:30 48° 259° (W) 13:19:35 437.125/150
Cubesat XI-IV 04 Sep 13:09:31 13:13:46 25° 10° (N) 13:18:02 437.490
DELFI C3 04 Sep 13:09:48 13:13:17 28° 319° (NW) 13:16:43 145.870
BRITE-PL 04 Sep 13:11:04 13:14:58 22° 350° (N) 13:19:03 437.365/2234.400
ITUPSAT 1 04 Sep 13:11:24 13:14:53 20° 82° (E) 13:18:26 437.325
DOVE 4 04 Sep 13:13:36 13:17:44 24° 341° (NNW) 13:21:54 437.250
AAUSAT CUBESAT 2 04 Sep 13:14:36 13:17:42 21° 332° (NNW) 13:20:47 437.432
HO-68 04 Sep 13:16:17 13:23:01 43° 338° (NNW) 13:29:42 435.675
DX 1 04 Sep 13:18:47 13:23:05 54° 307° (NW) 13:27:23 434.975-435.025
50 SAT 04 Sep 13:19:29 13:23:18 50° 305° (NW) 13:27:03 437.505
GOMX 1 04 Sep 13:19:33 13:23:34 23° 347° (NNW) 13:27:41 467.674
Oscar 11 04 Sep 13:20:16 13:23:53 26° 326° (NW) 13:27:28 145.826/435.025
SPROUT 04 Sep 13:24:29 13:28:52 69° 108° (ESE) 13:33:13 437.525
UKube-1 04 Sep 13:24:57 13:29:12 53° 307° (NW) 13:33:27 .
CINEMA 3 04 Sep 13:29:50 13:33:51 24° 337° (NNW) 13:37:49 145.822/145.860
BEESAT 04 Sep 13:41:51 13:45:57 28° 90° (E) 13:50:03 436.000
DANDE 04 Sep 13:44:47 13:48:46 16° 297° (WNW) 13:52:53 436.750
CUBEBUG 1 04 Sep 13:45:10 13:49:32 58° 304° (NW) 13:53:54 437.445
KKS-1 04 Sep 13:48:07 13:49:57 12° 72° (ENE) 13:51:55 437.445
CUTE-I 04 Sep 13:52:37 13:57:03 28° 21° (NNE) 14:01:31 437.470
JAS-2 04 Sep 13:55:07 14:03:03 80° 249° (WSW) 14:10:36 435.910
AISAT 04 Sep 13:57:23 14:01:40 44° 312° (NW) 14:05:57 437.250
ESTCUBE 1 04 Sep 13:59:13 14:03:34 48° 309° (NW) 14:07:54 437.505/2401.250
CUTE 1.7 + AOD 2 04 Sep 13:59:33 14:02:12 16° 349° (N) 14:04:49 437.475
AIST 1 04 Sep 14:07:21 14:10:10 17° 15° (NNE) 14:13:00
SWISSCUBE 04 Sep 14:08:25 14:12:53 38° 97° (E) 14:17:22 437.505
HORYU 2 04 Sep 14:11:34 14:16:04 70° 59° (ENE) 14:20:34 437.375
AO-7 04 Sep 14:12:05 14:20:30 84° 238° (WSW) 14:28:53 29.400- 29.500
ZACube-1 04 Sep 14:12:14 14:15:48 23° 334° (NNW) 14:19:18 437.345
TISAT 1 04 Sep 14:12:22 14:16:42 90° 82° (E) 14:21:00 437.305
CANX-2 04 Sep 14:14:06 14:16:39 16° 354° (N) 14:19:12 2200.000
FUNcube-1 04 Sep 14:15:42 14:19:14 22° 335° (NNW) 14:22:42 145.935
ITAMSAT 1 04 Sep 14:17:22 14:22:21 45° 260° (W) 14:27:21 435.822/435.867
Gurwin Techsat 1B 04 Sep 14:23:23 14:28:24 40° 264° (W) 14:33:26 435.225
HUMSAT D 04 Sep 14:23:26 14:26:55 24° 328° (NNW) 14:30:20 437.325/437.525
VELOX 1 04 Sep 14:24:27 14:28:33 35° 318° (NW) 14:32:38 145.980
SEEDS 04 Sep 14:28:12 14:30:41 15° 354° (N) 14:33:10 437.485
UWE-3 04 Sep 14:28:16 14:31:44 21° 341° (NNW) 14:35:08 435.000/436.395/437.385
Cosmos 2499 04 Sep 14:29:35 14:38:30 82° 254° (WSW) 14:46:56 435.465 / 435.565
CUBEBUG 2 04 Sep 14:29:50 14:33:20 20° 344° (NNW) 14:36:46 437.445
GONETS M04 04 Sep 14:31:40 14:39:57 48° 275° (W) 14:48:12
Cosmos 2504 04 Sep 14:39:34 14:42:44 12° 327° (NNW) 14:45:43 435.465 / 435.565
COMPASS 1 04 Sep 14:43:11 14:45:36 15° 355° (N) 14:48:01 437.405
DELFI C3 04 Sep 14:44:51 14:47:22 16° 342° (NNW) 14:49:52 145.870
Cubesat XI-IV 04 Sep 14:48:03 14:52:52 36° 34° (NE) 14:57:41 437.490
BRITE-PL 04 Sep 14:48:15 14:52:09 23° 14° (NNE) 14:56:16 437.365/2234.400
ITUPSAT 1 04 Sep 14:49:03 14:53:47 57° 105° (ESE) 14:58:31 437.325
Cosmos 2491 04 Sep 14:49:35 14:57:32 36° 8° (N) 15:05:30 435.465 / 435.565
AAUSAT CUBESAT 2 04 Sep 14:49:44 14:52:07 15° 355° (N) 14:54:30 437.432
DOVE 4 04 Sep 14:50:20 14:54:09 21° 5° (N) 14:58:04 437.250
Oscar 19 04 Sep 14:51:36 14:55:10 18° 284° (WNW) 14:58:39 437.125/150
50 SAT 04 Sep 14:54:10 14:57:12 22° 327° (NNW) 15:00:11 437.505
STARS 04 Sep 14:54:49 14:58:10 20° 84° (E) 15:01:33 437.465
DX 1 04 Sep 14:55:06 14:58:43 25° 329° (NNW) 15:02:20 434.975-435.025
BEESAT 3 04 Sep 14:56:06 14:58:48 17° 134° (SE) 15:01:32 437.485
Oscar 11 04 Sep 14:56:10 14:58:59 17° 349° (N) 15:01:48 145.826/435.025
GOMX 1 04 Sep 14:56:26 15:00:20 22° 11° (N) 15:04:25 467.674
SPROUT 04 Sep 15:00:42 15:04:50 42° 311° (NW) 15:08:57 437.525
UKube-1 04 Sep 15:01:09 15:04:43 25° 330° (NNW) 15:08:16 .
HO-68 04 Sep 15:03:08 15:09:38 38° 4° (N) 15:16:09 435.675
CINEMA 3 04 Sep 15:06:10 15:09:45 20° 0° (N) 15:13:21 145.822/145.860
RS-15 04 Sep 15:09:57 15:18:49 30° 110° (ESE) 15:28:13 29.354- 29.394
BEESAT 2 04 Sep 15:14:12 15:17:03 18° 135° (SE) 15:19:56 435.950
BEESAT 04 Sep 15:19:40 15:24:29 80° 114° (ESE) 15:29:16 436.000
CUBEBUG 1 04 Sep 15:21:37 15:25:19 26° 326° (NNW) 15:28:59 437.445
KKS-1 04 Sep 15:23:45 15:27:57 36° 96° (E) 15:32:08 437.445
CUTE-I 04 Sep 15:31:15 15:36:19 47° 45° (NE) 15:41:25 437.470
AISAT 04 Sep 15:33:57 15:37:29 23° 335° (NNW) 15:41:00 437.250
CUTE 1.7 + AOD 2 04 Sep 15:34:08 15:36:49 17° 13° (NNE) 15:39:30 437.475
ESTCUBE 1 04 Sep 15:36:07 15:39:44 24° 332° (NNW) 15:43:19 437.505/2401.250
JAS-2 04 Sep 15:41:45 15:49:03 39° 273° (W) 15:56:01 435.910
AIST 1 04 Sep 15:45:26 15:49:11 28° 40° (NE) 15:52:58
SWISSCUBE 04 Sep 15:46:21 15:51:08 76° 299° (WNW) 15:55:55 437.505
ZACube-1 04 Sep 15:47:54 15:50:55 17° 358° (N) 15:53:55 437.345
TISAT 1 04 Sep 15:48:16 15:52:10 34° 317° (NW) 15:56:03 437.305
CANX-2 04 Sep 15:48:29 15:51:18 17° 18° (NNE) 15:54:08 2200.000
HORYU 2 04 Sep 15:48:44 15:53:01 40° 262° (W) 15:57:17 437.375
FUNcube-1 04 Sep 15:51:20 15:54:20 17° 358° (N) 15:57:18 145.935
HUMSAT D 04 Sep 15:58:49 16:01:31 16° 351° (N) 16:04:11 437.325/437.525
ITAMSAT 1 04 Sep 15:59:54 16:03:14 17° 285° (WNW) 16:06:29 435.822/435.867
VELOX 1 04 Sep 16:00:54 16:04:12 21° 341° (NNW) 16:07:31 145.980
SEEDS 04 Sep 16:02:26 16:05:13 17° 17° (NNE) 16:07:59 437.485
UWE-3 04 Sep 16:03:49 16:06:58 18° 4° (N) 16:10:06 435.000/436.395/437.385
CUBEBUG 2 04 Sep 16:05:25 16:08:43 19° 7° (N) 16:12:00 437.445
MOZHAYETS 4 04 Sep 16:05:53 16:09:43 26° 87° (E) 16:13:34
AO-7 04 Sep 16:06:29 16:14:22 43° 264° (W) 16:22:13 29.400- 29.500
Gurwin Techsat 1B 04 Sep 16:06:50 16:09:56 15° 289° (WNW) 16:12:56 435.225
COMPASS 1 04 Sep 16:17:15 16:20:00 17° 19° (NNE) 16:22:47 437.405
AIST 2 04 Sep 16:18:57 16:21:56 19° 134° (SE) 16:24:57 435.215
DELFI C3 04 Sep 16:19:00 16:21:10 14° 5° (N) 16:23:21 145.870
Cosmos 2499 04 Sep 16:22:52 16:30:54 40° 281° (W) 16:38:30 435.465 / 435.565
AAUSAT CUBESAT 2 04 Sep 16:23:44 16:26:28 17° 19° (NNE) 16:29:12 437.432
BRITE-PL 04 Sep 16:25:08 16:29:35 35° 38° (NE) 16:34:23 437.365/2234.400
DOVE 4 04 Sep 16:26:24 16:30:40 28° 28° (NNE) 16:35:06 437.250
ITUPSAT 1 04 Sep 16:27:05 16:31:46 54° 308° (NW) 16:36:26 437.325
Cubesat XI-IV 04 Sep 16:27:12 16:32:31 73° 58° (ENE) 16:37:52 437.490
GONETS M04 04 Sep 16:28:28 16:34:52 23° 302° (WNW) 16:41:07
50 SAT 04 Sep 16:28:30 16:30:38 14° 350° (N) 16:32:44 437.505
DX 1 04 Sep 16:30:54 16:33:53 18° 353° (N) 16:36:52 434.975-435.025
STARS 04 Sep 16:31:01 16:35:28 61° 107° (ESE) 16:39:55 437.465
Oscar 11 04 Sep 16:31:04 16:33:54 17° 13° (NNE) 16:36:45 145.826/435.025
BEESAT 3 04 Sep 16:32:09 16:35:51 34° 156° (SSE) 16:39:34 437.485
GOMX 1 04 Sep 16:32:51 16:37:19 32° 35° (NE) 16:42:02 467.674
CUBESAT XI-V 04 Sep 16:34:56 16:36:38 12° 69° (ENE) 16:38:28 437.345
SPROUT 04 Sep 16:36:48 16:40:09 22° 333° (NNW) 16:43:28 437.525
UKube-1 04 Sep 16:36:50 16:39:45 18° 353° (N) 16:42:40 .
CINEMA 3 04 Sep 16:41:41 16:45:40 24° 24° (NNE) 16:49:43 145.822/145.860
Cosmos 2491 04 Sep 16:48:11 16:56:38 49° 39° (NE) 17:05:07 435.465 / 435.565
HO-68 04 Sep 16:49:31 16:56:21 49° 30° (NNE) 17:03:13 435.675
BEESAT 2 04 Sep 16:50:29 16:54:16 35° 157° (SSE) 16:58:02 435.950
BEESAT 04 Sep 16:57:38 17:02:08 42° 315° (NW) 17:06:37 436.000
CUBEBUG 1 04 Sep 16:57:39 17:00:36 18° 350° (N) 17:03:32 437.445
KKS-1 04 Sep 17:00:26 17:04:58 77° 299° (WNW) 17:09:28 437.445
CUTE 1.7 + AOD 2 04 Sep 17:08:08 17:11:40 26° 36° (NE) 17:15:12 437.475
AISAT 04 Sep 17:09:53 17:12:54 18° 358° (N) 17:15:55 437.250
CUTE-I 04 Sep 17:10:56 17:16:17 77° 247° (WSW) 17:21:40 437.470
ESTCUBE 1 04 Sep 17:12:26 17:15:27 18° 356° (N) 17:18:28 437.505/2401.250
RS-15 04 Sep 17:18:15 17:28:52 54° 140° (SE) 17:40:04 29.354- 29.394
YUBILEINY 04 Sep 17:18:57 17:24:04 18° 47° (NE) 17:29:22 435.215
CANX-2 04 Sep 17:22:31 17:26:14 29° 41° (NE) 17:29:58 2200.000
ZACube-1 04 Sep 17:22:38 17:26:01 21° 21° (NNE) 17:29:24 437.345
AIST 1 04 Sep 17:23:10 17:27:30 72° 63° (ENE) 17:31:52
TISAT 1 04 Sep 17:23:59 17:27:03 19° 339° (NNW) 17:30:06 437.305
SWISSCUBE 04 Sep 17:24:19 17:28:35 33° 323° (NW) 17:32:51 437.505
FUNcube-1 04 Sep 17:26:00 17:29:23 21° 22° (NNE) 17:32:47 145.935
HORYU 2 04 Sep 17:28:31 17:30:53 14° 285° (WNW) 17:33:10 437.375
JAS-2 04 Sep 17:31:14 17:36:22 18° 299° (WNW) 17:41:12 435.910
HUMSAT D 04 Sep 17:33:09 17:35:58 17° 15° (NNE) 17:38:48 437.325/437.525
SEEDS 04 Sep 17:36:20 17:40:01 29° 41° (NE) 17:43:41 437.485
VELOX 1 04 Sep 17:36:33 17:39:33 18° 4° (N) 17:42:34 145.980
UWE-3 04 Sep 17:38:33 17:42:17 24° 28° (NNE) 17:46:01 435.000/436.395/437.385
CUBEBUG 2 04 Sep 17:40:18 17:44:13 26° 31° (NNE) 17:48:10 437.445
MOZHAYETS 4 04 Sep 17:43:01 17:47:39 77° 109° (ESE) 17:52:14
COMPASS 1 04 Sep 17:51:02 17:54:43 30° 42° (NE) 17:58:24 437.405
DELFI C3 04 Sep 17:52:08 17:55:04 20° 29° (NNE) 17:58:02 145.870
AIST 2 04 Sep 17:55:45 17:59:39 36° 157° (SSE) 18:03:33 435.215
AAUSAT CUBESAT 2 04 Sep 17:57:27 18:01:05 30° 42° (NE) 18:04:45 437.432
50 SAT 04 Sep 18:01:40 18:03:53 15° 13° (NNE) 18:06:07 437.505
DOVE 4 04 Sep 18:02:45 18:07:38 52° 52° (NE) 18:12:46 437.250
BRITE-PL 04 Sep 18:02:47 18:07:38 77° 62° (ENE) 18:12:57 437.365/2234.400
AO-7 04 Sep 18:04:01 18:09:48 19° 292° (WNW) 18:15:22 29.400- 29.500
ITUPSAT 1 04 Sep 18:05:00 18:09:01 27° 331° (NNW) 18:13:01 437.325
Oscar 11 04 Sep 18:05:23 18:09:01 27° 36° (NE) 18:12:41 145.826/435.025
STRAND 1 04 Sep 18:05:27 18:08:52 18° 77° (ENE) 18:12:22 437.568
DX 1 04 Sep 18:05:48 18:08:56 20° 16° (NNE) 18:12:07 434.975-435.025
STARS 04 Sep 18:07:35 18:11:54 48° 309° (NW) 18:16:12 437.465
Cubesat XI-IV 04 Sep 18:07:53 18:13:00 45° 261° (W) 18:18:08 437.490
BEESAT 3 04 Sep 18:09:21 18:13:17 45° 178° (S) 18:17:11 437.485
GOMX 1 04 Sep 18:09:55 18:14:51 67° 59° (ENE) 18:20:10 467.674
CUBESAT XI-V 04 Sep 18:11:17 18:15:32 34° 93° (E) 18:19:48 437.345
UKube-1 04 Sep 18:11:35 18:14:42 20° 17° (NNE) 18:17:49 .
SPROUT 04 Sep 18:12:18 18:15:03 17° 357° (N) 18:17:46 437.525
Cosmos 2499 04 Sep 18:16:00 18:21:49 20° 308° (NW) 18:27:21 435.465 / 435.565
Cosmos 2504 04 Sep 18:17:01 18:18:58 11° 26° (NNE) 18:21:05 435.465 / 435.565
CINEMA 3 04 Sep 18:17:17 18:21:59 43° 47° (NE) 18:26:47 145.822/145.860
PRISM 04 Sep 18:23:36 18:25:48 14° 79° (ENE) 18:28:06 437.425
GONETS M04 04 Sep 18:25:28 18:28:19 12° 331° (NNW) 18:31:01
O/OREOS (USA 219) 04 Sep 18:26:56 18:30:39 25° 114° (ESE) 18:34:25 437.305
BEESAT 2 04 Sep 18:27:51 18:31:49 45° 180° (S) 18:35:45 435.950
CUBEBUG 1 04 Sep 18:32:42 18:35:42 18° 14° (NNE) 18:38:44 437.445
BEESAT 04 Sep 18:35:22 18:39:09 24° 339° (NNW) 18:42:55 436.000
HO-68 04 Sep 18:36:29 18:43:42 83° 56° (ENE) 18:50:59 435.675
KKS-1 04 Sep 18:37:11 18:41:12 32° 321° (NW) 18:45:12 437.445
CUTE 1.7 + AOD 2 04 Sep 18:42:49 18:47:02 60° 59° (ENE) 18:51:15 437.475
AISAT 04 Sep 18:44:54 18:48:16 22° 22° (NNE) 18:51:41 437.250
Cosmos 2491 04 Sep 18:45:46 18:54:35 86° 67° (ENE) 19:03:25 435.465 / 435.565
ESTCUBE 1 04 Sep 18:47:47 18:51:05 21° 19° (NNE) 18:54:25 437.505/2401.250
CUTE-I 04 Sep 18:52:32 18:57:11 29° 272° (W) 19:01:47 437.470
ZACube-1 04 Sep 18:57:14 19:01:28 36° 44° (NE) 19:05:40 437.345
CANX-2 04 Sep 18:57:28 19:01:45 75° 63° (ENE) 19:06:02 2200.000
TISAT 1 04 Sep 18:58:55 19:01:36 16° 3° (N) 19:04:17 437.305
FUNcube-1 04 Sep 19:00:35 19:04:49 36° 44° (NE) 19:09:01 145.935
AIST 1 04 Sep 19:01:01 19:04:59 35° 267° (W) 19:08:56
SWISSCUBE 04 Sep 19:01:52 19:05:28 22° 346° (NNW) 19:09:03 437.505
HUMSAT D 04 Sep 19:07:00 19:10:40 28° 38° (NE) 19:14:20 437.325/437.525
YUBILEINY 04 Sep 19:10:41 19:18:21 36° 75° (ENE) 19:26:07 435.215
SEEDS 04 Sep 19:11:09 19:15:24 75° 63° (ENE) 19:19:38 437.485
VELOX 1 04 Sep 19:11:24 19:14:58 24° 28° (NNE) 19:18:33 145.980
UWE-3 04 Sep 19:13:33 19:18:03 46° 50° (NE) 19:22:33 435.000/436.395/437.385
CUBEBUG 2 04 Sep 19:15:34 19:20:13 52° 53° (NE) 19:24:53 437.445
MOZHAYETS 4 04 Sep 19:20:24 19:24:43 41° 313° (NW) 19:29:00
DELFI C3 04 Sep 19:25:36 19:29:24 41° 51° (NE) 19:33:13 145.870
COMPASS 1 04 Sep 19:25:48 19:30:00 79° 64° (ENE) 19:34:13 437.405
RS-15 04 Sep 19:29:07 19:40:16 71° 170° (S) 19:52:02 29.354- 29.394
AAUSAT CUBESAT 2 04 Sep 19:32:07 19:36:19 79° 63° (ENE) 19:40:30 437.432
AIST 2 04 Sep 19:33:38 19:37:44 46° 179° (S) 19:41:48 435.215
50 SAT 04 Sep 19:34:12 19:37:22 24° 36° (NE) 19:40:33 437.505
DX 1 04 Sep 19:40:22 19:44:16 32° 39° (NE) 19:48:11 434.975-435.025
Oscar 11 04 Sep 19:40:22 19:44:41 62° 58° (ENE) 19:49:00 145.826/435.025
DOVE 4 04 Sep 19:40:24 19:45:23 64° 256° (WSW) 19:50:38 437.250
BRITE-PL 04 Sep 19:42:04 19:46:38 39° 267° (W) 19:51:33 437.365/2234.400
ITUPSAT 1 04 Sep 19:42:20 19:45:48 20° 355° (N) 19:49:16 437.325
STARS 04 Sep 19:44:03 19:47:39 24° 332° (NNW) 19:51:13 437.465
STRAND 1 04 Sep 19:44:22 19:49:20 48° 101° (E) 19:54:19 437.568
UKube-1 04 Sep 19:46:02 19:49:54 32° 40° (NE) 19:53:48 .
SPROUT 04 Sep 19:46:47 19:49:53 19° 20° (NNE) 19:53:00 437.525
BEESAT 3 04 Sep 19:46:57 19:50:43 36° 201° (SSW) 19:54:28 437.485
GOMX 1 04 Sep 19:48:27 19:53:16 47° 263° (W) 19:58:23 467.674
CUBESAT XI-V 04 Sep 19:48:46 19:53:26 82° 296° (WNW) 19:58:07 437.345
Cubesat XI-IV 04 Sep 19:51:04 19:54:32 17° 285° (WNW) 19:57:53 437.490
CINEMA 3 04 Sep 19:54:00 19:58:59 79° 249° (WSW) 20:04:06 145.822/145.860
PRISM 04 Sep 19:58:19 20:02:17 44° 101° (ESE) 20:06:16 437.425
Cosmos 2504 04 Sep 20:02:09 20:07:51 21° 54° (NE) 20:13:45 435.465 / 435.565
O/OREOS (USA 219) 04 Sep 20:04:55 20:09:28 62° 137° (SE) 20:14:03 437.305
BEESAT 2 04 Sep 20:05:34 20:09:22 35° 203° (SSW) 20:13:07 435.950
CUBEBUG 1 04 Sep 20:07:17 20:11:02 29° 37° (NE) 20:14:51 437.445
Cosmos 2499 04 Sep 20:09:37 20:11:28 11° 336° (NNW) 20:13:09 435.465 / 435.565
BEESAT 04 Sep 20:12:22 20:15:49 20° 3° (N) 20:19:16 436.000
KKS-1 04 Sep 20:13:36 20:16:52 20° 345° (NNW) 20:20:07 437.445
CUTE 1.7 + AOD 2 04 Sep 20:19:01 20:23:08 44° 261° (W) 20:27:15 437.475
AISAT 04 Sep 20:19:52 20:24:00 39° 45° (NE) 20:28:11 437.250
ESTCUBE 1 04 Sep 20:22:58 20:27:03 35° 43° (NE) 20:31:10 437.505/2401.250
HO-68 04 Sep 20:25:08 20:32:04 48° 261° (W) 20:39:03 435.675
ZACube-1 04 Sep 20:32:52 20:37:30 90° 94° (E) 20:42:09 437.345
TISAT 1 04 Sep 20:32:57 20:36:11 22° 26° (NNE) 20:39:28 437.305
CANX-2 04 Sep 20:34:04 20:38:02 35° 265° (W) 20:41:59 2200.000
FUNcube-1 04 Sep 20:36:12 20:40:50 89° 247° (WSW) 20:45:28 145.935
CUTE-I 04 Sep 20:37:54 20:39:11 11° 297° (WNW) 20:40:19 437.470
SWISSCUBE 04 Sep 20:38:36 20:42:07 21° 10° (N) 20:45:38 437.505
AIST 1 04 Sep 20:40:00 20:41:34 12° 290° (WNW) 20:43:02
HUMSAT D 04 Sep 20:41:36 20:45:54 66° 60° (ENE) 20:50:12 437.325/437.525
Cosmos 2491 04 Sep 20:42:48 20:51:02 47° 275° (W) 20:59:14 435.465 / 435.565
VELOX 1 04 Sep 20:46:33 20:50:49 48° 51° (NE) 20:55:09 145.980
SEEDS 04 Sep 20:47:38 20:51:33 34° 265° (W) 20:55:26 437.485
UWE-3 04 Sep 20:49:47 20:54:30 68° 254° (WSW) 20:59:12 435.000/436.395/437.385
CUBEBUG 2 04 Sep 20:52:11 20:56:55 59° 256° (WSW) 21:01:41 437.445
TIGRISAT 04 Sep 20:55:59 20:56:49 10° 66° (ENE) 20:57:47 435.000
MOZHAYETS 4 04 Sep 20:57:35 21:01:06 22° 336° (NNW) 21:04:36
DELFI C3 04 Sep 21:00:21 21:04:23 64° 253° (WSW) 21:08:24 145.870
COMPASS 1 04 Sep 21:02:16 21:06:04 32° 266° (W) 21:09:52 437.405
YUBILEINY 04 Sep 21:05:22 21:14:09 74° 102° (ESE) 21:23:00 435.215
CUSAT 1 04 Sep 21:05:22 21:08:31 15° 59° (ENE) 21:12:10 437.405
50 SAT 04 Sep 21:07:28 21:11:21 58° 58° (ENE) 21:15:14 437.505
AAUSAT CUBESAT 2 04 Sep 21:08:31 21:12:18 32° 266° (W) 21:16:05 437.432
AIST 2 04 Sep 21:11:53 21:15:49 37° 203° (SSW) 21:19:41 435.215
ANTELSAT 04 Sep 21:14:04 21:16:16 13° 72° (ENE) 21:18:34 437.575/2403.000
DX 1 04 Sep 21:15:46 21:20:09 80° 62° (ENE) 21:24:33 434.975-435.025
Oscar 11 04 Sep 21:16:53 21:21:04 43° 260° (W) 21:25:15 145.826/435.025
ITUPSAT 1 04 Sep 21:18:47 21:22:30 23° 19° (NNE) 21:26:14 437.325
STARS 04 Sep 21:19:56 21:22:57 18° 356° (N) 21:25:59 437.465
DOVE 4 04 Sep 21:20:03 21:24:07 24° 279° (W) 21:28:17 437.250
SPROUT 04 Sep 21:21:08 21:25:03 34° 44° (NE) 21:29:01 437.525
UKube-1 04 Sep 21:21:20 21:25:40 81° 62° (ENE) 21:30:03 .
STRAND 1 04 Sep 21:23:43 21:28:48 66° 305° (NW) 21:33:53 437.568
BRITE-PL 04 Sep 21:23:56 21:26:43 15° 292° (WNW) 21:29:30 437.365/2234.400
BEESAT 3 04 Sep 21:24:53 21:27:51 19° 223° (SW) 21:30:45 437.485
CUBESAT XI-V 04 Sep 21:26:21 21:30:32 34° 319° (NW) 21:34:42 437.345
GOMX 1 04 Sep 21:29:19 21:32:44 18° 287° (WNW) 21:36:12 467.674
CINEMA 3 04 Sep 21:32:35 21:36:54 28° 273° (W) 21:41:15 145.822/145.860
PRISM 04 Sep 21:33:49 21:37:53 58° 304° (NW) 21:41:56 437.425
RS-15 04 Sep 21:40:51 21:52:05 67° 201° (SSW) 22:03:52 29.354- 29.394
CUBEBUG 1 04 Sep 21:42:35 21:46:55 68° 60° (ENE) 21:51:19 437.445
BEESAT 2 04 Sep 21:43:41 21:46:34 19° 225° (SW) 21:49:24 435.950
O/OREOS (USA 219) 04 Sep 21:44:19 21:48:56 73° 341° (NNW) 21:53:35 437.305
BEESAT 04 Sep 21:48:35 21:52:31 26° 27° (NNE) 21:56:28 436.000
KKS-1 04 Sep 21:49:10 21:52:17 19° 8° (N) 21:55:24 437.445
Cosmos 2504 04 Sep 21:50:14 21:58:00 42° 81° (E) 22:05:57 435.465 / 435.565
AISAT 04 Sep 21:55:54 22:00:22 81° 247° (WSW) 22:04:53 437.250
CUTE 1.7 + AOD 2 04 Sep 21:57:43 22:00:10 14° 284° (WNW) 22:02:30 437.475
ESTCUBE 1 04 Sep 21:59:07 22:03:38 89° 66° (ENE) 22:08:11 437.505/2401.250
UNISAT 6 04 Sep 22:04:23 22:08:05 23° 84° (E) 22:11:46 437.425
DANDE 04 Sep 22:04:31 22:08:05 19° 68° (ENE) 22:12:25 436.750
TISAT 1 04 Sep 22:07:10 22:11:11 42° 49° (NE) 22:15:16 437.305
BUGSAT 1 04 Sep 22:07:56 22:08:43 10° 70° (ENE) 22:09:38 437.445
GONETS M04 04 Sep 22:10:04 22:13:22 13° 33° (NNE) 22:16:51
ZACube-1 04 Sep 22:10:15 22:14:23 31° 269° (W) 22:18:29 437.345
FUNcube-1 04 Sep 22:13:37 22:17:42 30° 270° (W) 22:21:46 145.935
CANX-2 04 Sep 22:13:43 22:15:16 12° 289° (WNW) 22:16:42 2200.000
SWISSCUBE 04 Sep 22:14:47 22:18:55 30° 34° (NE) 22:23:06 437.505
HO-68 04 Sep 22:16:27 22:21:46 21° 287° (WNW) 22:26:57 435.675
HUMSAT D 04 Sep 22:17:45 22:21:53 40° 262° (W) 22:26:00 437.325/437.525
DUCHIFAT 1 04 Sep 22:19:00 22:21:33 15° 78° (ENE) 22:24:10 145.980
POLYITAN 1 04 Sep 22:21:47 22:24:33 17° 79° (E) 22:27:23 437.675
POPSAT HIP 1 04 Sep 22:22:34 22:25:18 16° 79° (E) 22:28:07 437.405
VELOX 1 04 Sep 22:22:57 22:27:21 61° 253° (WSW) 22:31:48 145.980
SEEDS 04 Sep 22:27:13 22:28:37 11° 289° (WNW) 22:29:56 437.485
UWE-3 04 Sep 22:28:00 22:31:49 23° 276° (W) 22:35:35 435.000/436.395/437.385
CUBEBUG 2 04 Sep 22:30:53 22:34:32 21° 279° (W) 22:38:09 437.445
TIGRISAT 04 Sep 22:31:01 22:35:09 30° 91° (E) 22:39:11 435.000
MOZHAYETS 4 04 Sep 22:34:04 22:37:07 18° 360° (N) 22:40:09
DELFI C3 04 Sep 22:37:11 22:40:12 19° 276° (W) 22:43:09 145.870
NANOSAT C BR1 04 Sep 22:37:59 22:41:06 19° 83° (E) 22:44:17 145.865
Cosmos 2491 04 Sep 22:39:38 22:45:58 23° 302° (WNW) 22:52:09 435.465 / 435.565
QB50P2 04 Sep 22:40:33 22:43:48 21° 84° (E) 22:47:06 145.880/145.840
COMPASS 1 04 Sep 22:42:14 22:43:05 10° 290° (WNW) 22:43:48 437.405
50 SAT 04 Sep 22:42:16 22:46:02 41° 260° (W) 22:49:49 437.505
CUSAT 1 04 Sep 22:44:07 22:49:06 35° 85° (E) 22:55:23 437.405
AAUSAT CUBESAT 2 04 Sep 22:48:26 22:49:14 10° 290° (WNW) 22:49:55 437.432
ANTELSAT 04 Sep 22:50:03 22:54:25 38° 96° (E) 22:58:40 437.575/2403.000
AIST 2 04 Sep 22:50:30 22:53:33 19° 225° (SW) 22:56:33 435.215
DX 1 04 Sep 22:52:49 22:56:49 33° 265° (W) 23:00:49 434.975-435.025
QB50P1 04 Sep 22:53:29 22:56:59 23° 87° (E) 23:00:29 145.935-145.965
STARS 04 Sep 22:54:53 22:58:11 21° 19° (NNE) 23:01:31 437.465
ITUPSAT 1 04 Sep 22:55:06 22:59:30 39° 43° (NE) 23:03:57 437.325
Oscar 11 04 Sep 22:55:53 22:58:23 15° 284° (WNW) 23:00:47 145.826/435.025
SPROUT 04 Sep 22:56:28 23:00:50 90° 67° (ENE) 23:05:14 437.525
UKube-1 04 Sep 22:58:17 23:02:13 33° 265° (W) 23:06:11 .
YUBILEINY 04 Sep 23:02:44 23:11:30 61° 310° (NW) 23:20:18 435.215
STRAND 1 04 Sep 23:02:58 23:07:30 32° 328° (NNW) 23:12:00 437.568
CUBESAT XI-V 04 Sep 23:03:37 23:07:00 20° 342° (NNW) 23:10:23 437.345
PRISM 04 Sep 23:09:23 23:12:47 25° 326° (NW) 23:16:09 437.425
AUBIESAT-1 04 Sep 23:11:52 23:15:05 22° 96° (E) 23:18:09 437.475
CINEMA 3 04 Sep 23:14:50 23:15:51 10° 298° (WNW) 23:16:42 145.822/145.860
CUBEBUG 1 04 Sep 23:19:27 23:23:34 39° 262° (W) 23:27:44 437.445
M-CUBED/EXP-1 PRIME 04 Sep 23:21:34 23:25:11 27° 100° (E) 23:28:34 437.505
KKS-1 04 Sep 23:24:04 23:27:50 27° 32° (NNE) 23:31:37 437.445
O/OREOS (USA 219) 04 Sep 23:24:08 23:28:45 64° 6° (N) 23:33:22 437.305
BEESAT 04 Sep 23:25:03 23:29:40 50° 49° (NE) 23:34:17 436.000
AISAT 04 Sep 23:33:45 23:37:34 27° 270° (W) 23:41:23 437.250
ESTCUBE 1 04 Sep 23:37:02 23:41:02 30° 268° (W) 23:45:02 437.505/2401.250
Cosmos 2504 04 Sep 23:41:00 23:49:35 85° 107° (ESE) 23:58:17 435.465 / 435.565
UNISAT 6 04 Sep 23:41:01 23:45:41 69° 108° (ESE) 23:50:14 437.425
BUGSAT 1 04 Sep 23:41:42 23:45:32 32° 94° (E) 23:49:24 437.445
TISAT 1 04 Sep 23:42:36 23:46:51 68° 251° (WSW) 23:51:09 437.305
DANDE 04 Sep 23:44:52 23:49:40 48° 95° (E) 23:56:03 436.750
Cosmos 2499 04 Sep 23:45:46 23:49:26 13° 36° (NE) 23:53:16 435.465 / 435.565
SO-50 04 Sep 23:48:20 23:49:35 11° 117° (ESE) 23:51:00 436.795
ZACube-1 04 Sep 23:51:03 23:52:15 11° 293° (WNW) 23:53:18 437.345
SWISSCUBE 04 Sep 23:51:32 23:56:17 66° 57° (ENE) 00:01:02 437.505
RS-15 04 Sep 23:52:31 00:03:10 45° 231° (SW) 00:14:10 29.354- 29.394
DUCHIFAT 1 04 Sep 23:54:13 23:58:24 46° 101° (E) 00:02:34 145.980
FUNcube-1 04 Sep 23:54:37 23:55:32 10° 293° (WNW) 23:56:20 145.935
HUMSAT D 04 Sep 23:56:32 23:58:47 14° 285° (WNW) 00:00:56 437.325/437.525
POLYITAN 1 04 Sep 23:57:13 00:01:28 50° 103° (ESE) 00:05:41 437.675
POPSAT HIP 1 04 Sep 23:57:56 00:02:11 50° 102° (ESE) 00:06:24 437.405
GONETS M04 05 Sep 00:00:27 00:07:01 25° 62° (ENE) 00:13:46
VELOX 1 05 Sep 00:01:27 00:04:47 20° 276° (W) 00:08:06 145.980
TIGRISAT 05 Sep 00:07:44 00:12:26 89° 95° (E) 00:17:01 435.000
MOZHAYETS 4 05 Sep 00:09:37 00:13:07 22° 24° (NNE) 00:16:38
NANOSAT C BR1 05 Sep 00:13:30 00:17:47 60° 106° (ESE) 00:22:03 145.865
QB50P2 05 Sep 00:16:11 00:20:31 64° 107° (ESE) 00:24:49 145.880/145.840
50 SAT 05 Sep 00:19:40 00:21:36 13° 283° (WNW) 00:23:26 437.505
CUSAT 1 05 Sep 00:25:23 00:30:56 84° 113° (ESE) 00:38:13 437.405
PCSat 05 Sep 00:26:44 00:29:19 14° 110° (ESE) 00:32:03 145.827
ANTELSAT 05 Sep 00:26:52 00:31:33 74° 298° (WNW) 00:36:06 437.575/2403.000
QB50P1 05 Sep 00:29:11 00:33:32 73° 110° (ESE) 00:37:51 145.935-145.965
STARS 05 Sep 00:29:41 00:33:45 36° 42° (NE) 00:37:51 437.465
ITUPSAT 1 05 Sep 00:32:21 00:37:09 87° 245° (WSW) 00:41:59 437.325
DX 1 05 Sep 00:33:03 00:34:26 11° 288° (WNW) 00:35:43 434.975-435.025
SPROUT 05 Sep 00:33:37 00:37:26 29° 269° (W) 00:41:15 437.525
Cosmos 2491 05 Sep 00:36:42 00:39:26 12° 331° (NNW) 00:42:00 435.465 / 435.565
UKube-1 05 Sep 00:38:33 00:39:45 11° 289° (WNW) 00:40:48 .
CUBESAT XI-V 05 Sep 00:40:04 00:43:11 18° 6° (N) 00:46:19 437.345
STRAND 1 05 Sep 00:41:41 00:45:39 23° 352° (N) 00:49:36 437.568
PRISM 05 Sep 00:44:34 00:47:10 17° 349° (N) 00:49:47 437.425
Gurwin Techsat 1B 05 Sep 00:44:39 00:47:02 13° 68° (ENE) 00:49:31 435.225
AUBIESAT-1 05 Sep 00:46:20 00:50:33 69° 120° (ESE) 00:54:23 437.475
JAS-2 05 Sep 00:49:16 00:53:20 16° 57° (ENE) 00:57:21 435.910
M-CUBED/EXP-1 PRIME 05 Sep 00:56:15 01:00:34 84° 124° (SE) 01:04:29 437.505
CUBEBUG 1 05 Sep 00:58:58 01:01:10 13° 286° (WNW) 01:03:16 437.445
KKS-1 05 Sep 00:59:28 01:03:52 57° 55° (NE) 01:08:20 437.445
YUBILEINY 05 Sep 01:01:59 01:10:13 39° 340° (NNW) 01:18:25 435.215
BEESAT 05 Sep 01:02:44 01:07:30 63° 252° (WSW) 01:12:17 436.000
O/OREOS (USA 219) 05 Sep 01:03:48 01:08:28 89° 211° (SSW) 01:13:07 437.305
Oscar 19 05 Sep 01:05:44 01:10:08 27° 86° (E) 01:14:34 437.125/150
BUGSAT 1 05 Sep 01:17:08 01:21:25 82° 295° (WNW) 01:25:42 437.445
UNISAT 6 05 Sep 01:17:54 01:22:22 45° 311° (NW) 01:26:43 437.425
ESTCUBE 1 05 Sep 01:18:46 01:19:25 10° 292° (WNW) 01:19:57 437.505/2401.250
TISAT 1 05 Sep 01:20:02 01:23:22 22° 275° (W) 01:26:41 437.305
SO-50 05 Sep 01:24:43 01:28:45 26° 139° (SE) 01:32:52 436.795
DANDE 05 Sep 01:27:28 01:32:36 72° 304° (WNW) 01:39:33 436.750
SWISSCUBE 05 Sep 01:29:48 01:34:23 45° 259° (W) 01:39:00 437.505
DUCHIFAT 1 05 Sep 01:30:06 01:34:21 58° 304° (WNW) 01:38:34 145.980
Cosmos 2499 05 Sep 01:32:48 01:39:35 26° 63° (ENE) 01:46:29 435.465 / 435.565
POLYITAN 1 05 Sep 01:33:12 01:37:28 55° 305° (NW) 01:41:42 437.675
POPSAT HIP 1 05 Sep 01:33:55 01:38:09 55° 305° (NW) 01:42:22 437.405
Cosmos 2504 05 Sep 01:34:09 01:42:35 54° 315° (NW) 01:51:01 435.465 / 435.565
TIGRISAT 05 Sep 01:44:37 01:48:54 37° 317° (NW) 01:53:05 435.000
MOZHAYETS 4 05 Sep 01:45:13 01:49:31 40° 47° (NE) 01:53:49
NANOSAT C BR1 05 Sep 01:49:27 01:53:36 47° 308° (NW) 01:57:44 145.865
QB50P2 05 Sep 01:52:12 01:56:21 45° 309° (NW) 02:00:28 145.880/145.840
GONETS M04 05 Sep 01:53:48 02:02:08 53° 89° (E) 02:10:34
AO-7 05 Sep 01:56:55 02:01:41 16° 62° (ENE) 02:06:40 29.400- 29.500
ANTELSAT 05 Sep 02:03:44 02:07:53 31° 322° (NW) 02:11:55 437.575/2403.000
RS-15 05 Sep 02:04:22 02:12:44 23° 259° (W) 02:21:01 29.354- 29.394
QB50P1 05 Sep 02:05:11 02:09:15 40° 312° (NW) 02:13:17 145.935-145.965
STARS 05 Sep 02:05:26 02:09:54 90° 236° (WSW) 02:14:25 437.465
PCSat 05 Sep 02:06:37 02:11:23 33° 133° (SE) 02:16:13 145.827
CUSAT 1 05 Sep 02:08:26 02:14:07 50° 320° (NW) 02:21:19 437.405
ITUPSAT 1 05 Sep 02:11:24 02:15:39 31° 268° (W) 02:19:53 437.325
ITAMSAT 1 05 Sep 02:14:49 02:19:15 28° 88° (E) 02:23:43 435.822/435.867
CUBESAT XI-V 05 Sep 02:15:43 02:19:27 25° 30° (NNE) 02:23:14 437.345
PRISM 05 Sep 02:18:45 02:21:25 17° 13° (NNE) 02:24:04 437.425
STRAND 1 05 Sep 02:19:34 02:23:39 25° 16° (NNE) 02:27:45 437.568
AUBIESAT-1 05 Sep 02:21:06 02:25:11 46° 323° (NW) 02:28:57 437.475
Gurwin Techsat 1B 05 Sep 02:23:51 02:28:43 35° 92° (E) 02:33:35 435.225
M-CUBED/EXP-1 PRIME 05 Sep 02:31:04 02:35:09 41° 327° (NNW) 02:38:55 437.505
JAS-2 05 Sep 02:34:16 02:40:56 35° 84° (E) 02:46:59 435.910
KKS-1 05 Sep 02:36:15 02:40:38 50° 257° (WSW) 02:45:04 437.445
BEESAT 05 Sep 02:42:30 02:46:15 22° 276° (W) 02:49:58 436.000
O/OREOS (USA 219) 05 Sep 02:43:19 02:47:40 41° 234° (SW) 02:52:00 437.305
Oscar 19 05 Sep 02:45:06 02:50:21 73° 109° (ESE) 02:55:35 437.125/150
BUGSAT 1 05 Sep 02:52:44 02:56:32 32° 318° (NW) 03:00:19 437.445
UNISAT 6 05 Sep 02:54:39 02:58:22 24° 334° (NNW) 03:02:00 437.425
YUBILEINY 05 Sep 03:01:30 03:09:36 37° 11° (N) 03:17:42 435.215
SO-50 05 Sep 03:03:50 03:08:31 44° 162° (SSE) 03:13:15 436.795
DUCHIFAT 1 05 Sep 03:06:01 03:09:35 26° 326° (NW) 03:13:08 145.980
POLYITAN 1 05 Sep 03:09:12 03:12:45 25° 328° (NNW) 03:16:17 437.675
POPSAT HIP 1 05 Sep 03:09:52 03:13:25 25° 327° (NNW) 03:16:56 437.405
SWISSCUBE 05 Sep 03:10:29 03:13:28 16° 283° (WNW) 03:16:23 437.505
DANDE 05 Sep 03:11:36 03:16:48 39° 332° (NNW) 03:23:28 436.750
TIGRISAT 05 Sep 03:21:12 03:24:43 21° 340° (NNW) 03:28:10 435.000
MOZHAYETS 4 05 Sep 03:21:56 03:26:34 78° 250° (WSW) 03:31:12
Cosmos 2499 05 Sep 03:22:39 03:31:07 54° 90° (E) 03:39:37 435.465 / 435.565
HORYU 2 05 Sep 03:25:05 03:28:23 20° 83° (E) 03:31:44 437.375
NANOSAT C BR1 05 Sep 03:25:20 03:28:43 23° 331° (NNW) 03:32:05 145.865
QB50P2 05 Sep 03:28:08 03:31:31 22° 332° (NNW) 03:34:51 145.880/145.840
Cosmos 2504 05 Sep 03:28:52 03:36:46 37° 343° (NNW) 03:44:34 435.465 / 435.565
ANTELSAT 05 Sep 03:40:15 03:43:38 20° 345° (NNW) 03:46:57 437.575/2403.000
QB50P1 05 Sep 03:41:03 03:44:18 21° 335° (NNW) 03:47:32 145.935-145.965
STARS 05 Sep 03:42:55 03:46:53 30° 268° (W) 03:50:50 437.465
PCSat 05 Sep 03:48:51 03:54:10 58° 157° (SSE) 03:59:32 145.827
AO-7 05 Sep 03:49:53 03:57:28 37° 91° (E) 04:05:03 29.400- 29.500
GONETS M04 05 Sep 03:50:01 03:58:47 79° 297° (WNW) 04:07:39
CUBESAT XI-V 05 Sep 03:51:45 03:56:13 51° 53° (NE) 04:00:43 437.345
PRISM 05 Sep 03:52:24 03:55:50 27° 36° (NE) 03:59:19 437.425
CUSAT 1 05 Sep 03:52:30 03:58:13 34° 347° (NNW) 04:05:07 437.405
ITUPSAT 1 05 Sep 03:53:59 03:55:09 11° 292° (WNW) 03:56:12 437.325
ITAMSAT 1 05 Sep 03:54:21 03:59:34 75° 111° (ESE) 04:04:48 435.822/435.867
AUBIESAT-1 05 Sep 03:55:36 03:59:17 28° 346° (NNW) 04:02:44 437.475
STRAND 1 05 Sep 03:57:13 04:01:57 39° 40° (NE) 04:06:41 437.568
Gurwin Techsat 1B 05 Sep 04:03:56 04:09:19 90° 15° (NNE) 04:14:41 435.225
M-CUBED/EXP-1 PRIME 05 Sep 04:05:31 04:09:16 27° 350° (N) 04:12:46 437.505
KKS-1 05 Sep 04:15:18 04:18:19 17° 280° (W) 04:21:16 437.445
JAS-2 05 Sep 04:19:36 04:27:07 78° 110° (ESE) 04:33:46 435.910
Cosmos 2491 05 Sep 04:21:17 04:24:32 13° 33° (NNE) 04:27:58 435.465 / 435.565
O/OREOS (USA 219) 05 Sep 04:23:23 04:26:07 15° 256° (WSW) 04:28:47 437.305
Oscar 19 05 Sep 04:24:37 04:29:38 48° 314° (NW) 04:34:38 437.125/150
BUGSAT 1 05 Sep 04:28:08 04:31:04 18° 341° (NNW) 04:34:00 437.445
UNISAT 6 05 Sep 04:30:45 04:33:56 18° 358° (N) 04:37:05 437.425
Cubesat XI-IV 05 Sep 04:30:47 04:32:20 11° 65° (ENE) 04:34:02 437.490
DUCHIFAT 1 05 Sep 04:41:31 04:44:19 17° 349° (N) 04:47:06 145.980
SO-50 05 Sep 04:43:48 04:48:35 49° 185° (S) 04:53:24 436.795
POLYITAN 1 05 Sep 04:44:45 04:47:33 17° 351° (N) 04:50:22 437.675
POPSAT HIP 1 05 Sep 04:45:24 04:48:11 17° 351° (N) 04:50:59 437.405
